Volver al catálogo

FENGYUN 1C DEB

ActivoPO
NORAD 38166·DEBRIS·🇨🇳 China

Lanzado May 10, 1999 desde Taiyuan Satellite Launch Center

Loading…

Próximos Pases (próximas 24 horas)

TLE

ActualizadoSource: Space-Track

Época: Sep 14, 2026, 14:04 UTC

1 38166U 99025ERP 26257.58664196  .00004172  00000-0  14711-2 0  9996
2 38166  99.0828  18.8501 0049241 320.0977  39.6591 14.34663718677234

Sigue FENGYUN 1C DEB en tiempo real con AllMySat

Download on the App Store